sat.trackr.live / text

‹ back to catalog

PELICAN-4

NORAD 65316 · 2025-188B

PAYLOAD ACTIVE UNKNOWN

§ Identity

Operator
Country
US
Launch date
2025-08-26
Launch site
AFWTR
Launch vehicle
Mass (kg)
RCS (m²)

Purposes: earth_obs

External: N2YO · Heavens-Above · Gunter

§ Orbital elements

Epoch: 2026-05-25T04:50:58.197408Z

Period
93.47 min
Inclination
97.1989°
Eccentricity
0.0002103
Mean motion
15.40682714 rev/d
Perigee alt
442.7 km
Apogee alt
445.5 km
Semi-major
6,822.2 km
B*
2.8215e-5
RAAN
221.8465°
Arg perigee
99.2661°
Mean anomaly
260.8823°
Rev number
4,177

§ Raw data

PELICAN-41 65316U 25188B   26145.20206247  .00001070  00000+0  28215-4 0  99952 65316  97.1989 221.8465 0002103  99.2661 260.8823 15.40682714 41779

JSON: /api/v1/satellites/65316 · /tle

For live sub-satellite position, see the globe view (requires WebGL).

§ Visibility from observer

Set your observer location to see the next 7 days of passes ≥ 10°. The values pass through the URL so the page stays shareable.

No JS? Fill the form by hand. The geolocation button needs JavaScript.